| time (UTC) | temp C | wind direction | speed KPH | gust KPH | rain 1hr cm | rain 24hr cm | rain mn cm | humidity % | barometer mb |
| 20260510061000 | 11 | 296 | 0.0 | 1.6 | 0.00 | 0.00 | 0.36 | 98 | 1010.9 |
| 20260510060501 | 11 | 32 | 0.0 | 1.6 | 0.00 | 0.00 | 0.36 | 98 | 1011.2 |
| 20260510060006 | 11 | 20 | 0.0 | 3.2 | 0.00 | 0.00 | 0.36 | 97 | 1011.0 |
| 20260510055506 | 11 | 38 | 1.6 | 3.2 | 0.00 | 0.00 | 0.36 | 98 | 1011.0 |
| 20260510055000 | 11 | 146 | 0.0 | 3.2 | 0.00 | 0.00 | 0.36 | 97 | 1011.2 |
| 20260510054501 | 11 | 8 | 9.7 | 9.7 | 0.00 | 0.00 | 0.36 | 98 | 1011.2 |
| 20260510054001 | 11 | 66 | 0.0 | 3.2 | 0.00 | 0.00 | 0.36 | 98 | 1011.0 |
| 20260510053506 | 11 | 244 | 4.8 | 8.0 | 0.00 | 0.00 | 0.36 | 97 | 1010.9 |
| 20260510053005 | 11 | 153 | 6.4 | 8.0 | 0.00 | 0.00 | 0.33 | 97 | 1010.7 |
| 20260510052506 | 11 | 134 | 3.2 | 3.2 | 0.00 | 0.00 | 0.33 | 97 | 1011.4 |
| 20260510052000 | 11 | 254 | 0.0 | 0.0 | 0.00 | 0.00 | 0.28 | 97 | 1011.9 |
| 20260510051501 | 11 | 355 | 1.6 | 3.2 | 0.00 | 0.00 | 0.23 | 97 | 1011.8 |
| 20260510051000 | 11 | 36 | 0.0 | 4.8 | 0.00 | 0.00 | 0.20 | 97 | 1011.9 |
| 20260510050501 | 11 | 89 | 0.0 | 1.6 | 0.00 | 0.00 | 0.18 | 97 | 1011.8 |
| 20260510050000 | 11 | 65 | 0.0 | 3.2 | 0.00 | 0.00 | 0.18 | 97 | 1011.7 |
| 20260510045501 | 11 | 284 | 0.0 | 1.6 | 0.00 | 0.00 | 0.18 | 97 | 1011.8 |
| 20260510045011 | 11 | 4 | 3.2 | 6.4 | 0.00 | 0.00 | 0.15 | 97 | 1011.5 |
| 20260510044501 | 11 | 21 | 3.2 | 4.8 | 0.00 | 0.00 | 0.10 | 97 | 1011.5 |
| 20260510044001 | 11 | 331 | 1.6 | 3.2 | 0.00 | 0.00 | 0.08 | 97 | 1011.6 |
| 20260510043500 | 11 | 346 | 1.6 | 3.2 | 0.00 | 0.00 | 0.05 | 97 | 1011.3 |
| 20260510043000 | 11 | 346 | 0.0 | 1.6 | 0.00 | 0.00 | 0.05 | 97 | 1011.3 |
| 20260510042501 | 11 | 233 | 0.0 | 3.2 | 0.00 | 0.00 | 0.03 | 97 | 1011.1 |
| 20260510042006 | 11 | 208 | 0.0 | 3.2 | 0.00 | 0.00 | 0.00 | 97 | 1011.0 |
| 20260510041500 | 11 | 89 | 0.0 | 3.2 | 0.00 | 0.00 | 0.00 | 97 | 1010.8 |
| 20260510041011 | 11 | 148 | 4.8 | 6.4 | 0.00 | 0.00 | 0.00 | 97 | 1010.7 |
| 20260510040500 | 11 | 97 | 1.6 | 3.2 | 0.00 | 0.00 | 0.00 | 97 | 1010.5 |
| 20260510040001 | 11 | 80 | 0.0 | 3.2 | 0.00 | 0.00 | 1.35 | 97 | 1010.4 |
| 20260510035501 | 11 | 41 | 0.0 | 3.2 | 0.00 | 0.00 | 1.35 | 97 | 1010.5 |
| 20260510035001 | 11 | 64 | 0.0 | 1.6 | 0.00 | 0.00 | 1.35 | 97 | 1010.6 |
| 20260510034501 | 11 | 45 | 3.2 | 6.4 | 0.00 | 0.00 | 1.35 | 97 | 1010.5 |
| 20260510034001 | 11 | 15 | 3.2 | 6.4 | 0.00 | 0.00 | 1.35 | 96 | 1010.9 |
| 20260510033500 | 11 | 0 | 3.2 | 4.8 | 0.00 | 0.00 | 1.35 | 96 | 1010.8 |
| 20260510033001 | 11 | 32 | 1.6 | 3.2 | 0.00 | 0.00 | 1.35 | 96 | 1010.7 |
| 20260510032501 | 11 | 67 | 1.6 | 3.2 | 0.00 | 0.00 | 1.35 | 96 | 1010.5 |
| 20260510032000 | 11 | 110 | 1.6 | 4.8 | 0.00 | 0.00 | 1.35 | 96 | 1010.6 |
| 20260510031506 | 11 | 150 | 1.6 | 3.2 | 0.00 | 0.00 | 1.35 | 96 | 1010.7 |
| 20260510031000 | 11 | 142 | 1.6 | 3.2 | 0.00 | 0.00 | 1.35 | 96 | 1010.6 |
| 20260510030501 | 11 | 14 | 0.0 | 3.2 | 0.00 | 0.00 | 1.35 | 96 | 1010.6 |
| 20260510030005 | 11 | 135 | 1.6 | 3.2 | 0.00 | 0.00 | 1.35 | 96 | 1010.7 |
| 20260510025501 | 11 | 0 | 0.0 | 3.2 | 0.00 | 0.00 | 1.35 | 96 | 1010.8 |
| 20260510025001 | 11 | 343 | 1.6 | 4.8 | 0.00 | 0.00 | 1.35 | 96 | 1011.1 |
| 20260510024501 | 11 | 100 | 1.6 | 4.8 | 0.00 | 0.00 | 1.35 | 95 | 1011.0 |
| 20260510024001 | 11 | 127 | 4.8 | 4.8 | 0.00 | 0.00 | 1.30 | 95 | 1011.5 |
| 20260510023500 | 11 | 120 | 0.0 | 1.6 | 0.00 | 0.00 | 1.24 | 95 | 1011.7 |
| 20260510023001 | 11 | 57 | 0.0 | 3.2 | 0.00 | 0.00 | 1.17 | 95 | 1011.7 |
| 20260510022500 | 11 | 40 | 3.2 | 3.2 | 0.00 | 0.00 | 1.12 | 95 | 1011.8 |
| 20260510022001 | 11 | 51 | 1.6 | 3.2 | 0.00 | 0.00 | 1.07 | 94 | 1011.9 |
| 20260510021500 | 11 | 285 | 0.0 | 4.8 | 0.00 | 0.00 | 1.04 | 94 | 1011.8 |
| 20260510021001 | 11 | 27 | 3.2 | 8.0 | 0.00 | 0.00 | 1.02 | 94 | 1011.8 |
| 20260510020501 | 11 | 36 | 3.2 | 9.7 | 0.00 | 0.00 | 0.94 | 93 | 1011.8 |
| 20260510020001 | 11 | 17 | 8.0 | 9.7 | 0.00 | 0.00 | 0.89 | 93 | 1011.8 |
| 20260510015501 | 11 | 8 | 6.4 | 12.9 | 0.00 | 0.00 | 0.84 | 92 | 1011.6 |
| 20260510015000 | 12 | 4 | 12.9 | 12.9 | 0.00 | 0.00 | 0.79 | 91 | 1011.7 |
| 20260510014500 | 12 | 294 | 4.8 | 17.7 | 0.00 | 0.00 | 0.58 | 89 | 1011.3 |
| 20260510014001 | 13 | 355 | 20.9 | 30.6 | 0.00 | 0.00 | 0.33 | 81 | 1011.1 |
| 20260510013500 | 15 | 10 | 4.8 | 25.7 | 0.00 | 0.00 | 0.30 | 70 | 1010.7 |
| 20260510013006 | 16 | 346 | 6.4 | 8.0 | 0.00 | 0.00 | 0.30 | 62 | 1009.6 |
| 20260510012500 | 16 | 256 | 3.2 | 4.8 | 0.00 | 0.00 | 0.30 | 63 | 1009.1 |
| 20260510012001 | 16 | 220 | 1.6 | 11.3 | 0.00 | 0.00 | 0.30 | 63 | 1008.7 |
| 20260510011500 | 16 | 213 | 1.6 | 8.0 | 0.00 | 0.00 | 0.30 | 62 | 1008.6 |
| 20260510011001 | 16 | 170 | 3.2 | 9.7 | 0.00 | 0.00 | 0.30 | 61 | 1008.8 |
| 20260510010501 | 16 | 182 | 3.2 | 17.7 | 0.00 | 0.00 | 0.30 | 61 | 1008.6 |
| 20260510010000 | 16 | 289 | 0.0 | 9.7 | 0.00 | 0.00 | 0.30 | 62 | 1008.6 |
| 20260510005501 | 16 | 233 | 6.4 | 6.4 | 0.00 | 0.00 | 0.30 | 62 | 1008.7 |
| 20260510005000 | 16 | 196 | 3.2 | 20.9 | 0.00 | 0.00 | 0.30 | 62 | 1008.7 |
| 20260510004501 | 16 | 193 | 0.0 | 14.5 | 0.00 | 0.00 | 0.30 | 62 | 1008.6 |
| 20260510004001 | 16 | 211 | 8.0 | 8.0 | 0.00 | 0.00 | 0.30 | 63 | 1008.6 |
| 20260510003501 | 16 | 244 | 4.8 | 11.3 | 0.00 | 0.00 | 0.30 | 62 | 1008.7 |
| 20260510003001 | 16 | 155 | 3.2 | 12.9 | 0.00 | 0.00 | 0.30 | 61 | 1008.7 |
| 20260510002500 | 16 | 212 | 0.0 | 6.4 | 0.00 | 0.00 | 0.30 | 63 | 1008.5 |
| 20260510002001 | 17 | 101 | 1.6 | 17.7 | 0.00 | 0.00 | 0.30 | 61 | 1008.4 |
| 20260510001505 | 17 | 240 | 4.8 | 11.3 | 0.00 | 0.00 | 0.30 | 61 | 1008.3 |
| 20260510001001 | 17 | 238 | 8.0 | 12.9 | 0.00 | 0.00 | 0.30 | 62 | 1008.3 |
| 20260510000501 | 17 | 211 | 3.2 | 8.0 | 0.00 | 0.00 | 0.30 | 62 | 1008.2 |
| 20260510000000 | 17 | 199 | 3.2 | 16.1 | 0.00 | 0.00 | 0.30 | 60 | 1008.4 |
| 20260509235501 | 17 | 211 | 4.8 | 9.7 | 0.00 | 0.00 | 0.30 | 59 | 1008.3 |
| 20260509235005 | 17 | 127 | 9.7 | 12.9 | 0.00 | 0.00 | 0.30 | 59 | 1008.0 |
| 20260509234506 | 17 | 193 | 0.0 | 4.8 | 0.00 | 0.00 | 0.30 | 61 | 1007.9 |
| 20260509234001 | 17 | 214 | 4.8 | 20.9 | 0.00 | 0.00 | 0.30 | 59 | 1007.9 |
| 20260509233500 | 17 | 227 | 16.1 | 19.3 | 0.00 | 0.00 | 0.30 | 58 | 1008.1 |
| 20260509233001 | 18 | 221 | 6.4 | 22.5 | 0.00 | 0.00 | 0.30 | 57 | 1008.1 |
| 20260509232501 | 18 | 234 | 11.3 | 19.3 | 0.00 | 0.00 | 0.30 | 56 | 1008.1 |
| 20260509232001 | 18 | 165 | 3.2 | 9.7 | 0.00 | 0.00 | 0.30 | 57 | 1008.0 |
| 20260509231500 | 18 | 204 | 4.8 | 22.5 | 0.00 | 0.00 | 0.30 | 56 | 1008.0 |
| 20260509231000 | 18 | 195 | 3.2 | 25.7 | 0.00 | 0.00 | 0.30 | 58 | 1007.8 |
| 20260509230501 | 18 | 221 | 4.8 | 8.0 | 0.00 | 0.00 | 0.30 | 55 | 1007.9 |
| 20260509230001 | 19 | 167 | 3.2 | 24.1 | 0.00 | 0.00 | 0.30 | 55 | 1008.1 |
| 20260509225500 | 18 | 209 | 4.8 | 16.1 | 0.00 | 0.00 | 0.30 | 55 | 1007.9 |
| 20260509225001 | 19 | 261 | 4.8 | 17.7 | 0.00 | 0.00 | 0.30 | 54 | 1007.6 |
| 20260509224500 | 19 | 227 | 11.3 | 19.3 | 0.00 | 0.00 | 0.30 | 54 | 1007.5 |
| 20260509224006 | 19 | 227 | 8.0 | 17.7 | 0.00 | 0.00 | 0.30 | 55 | 1007.4 |
| 20260509223501 | 19 | 230 | 8.0 | 12.9 | 0.00 | 0.00 | 0.30 | 56 | 1007.4 |
| 20260509223001 | 19 | 243 | 12.9 | 17.7 | 0.00 | 0.00 | 0.30 | 56 | 1007.7 |
| 20260509222500 | 19 | 214 | 16.1 | 32.2 | 0.00 | 0.00 | 0.30 | 55 | 1007.7 |
| 20260509222001 | 19 | 166 | 8.0 | 29.0 | 0.00 | 0.00 | 0.30 | 55 | 1007.7 |
| 20260509221501 | 19 | 177 | 3.2 | 8.0 | 0.00 | 0.00 | 0.30 | 55 | 1007.6 |
| 20260509221001 | 18 | 228 | 11.3 | 24.1 | 0.00 | 0.00 | 0.30 | 54 | 1007.7 |
| 20260509220506 | 19 | 233 | 14.5 | 30.6 | 0.00 | 0.00 | 0.30 | 55 | 1007.7 |
| 20260509220000 | 19 | 237 | 9.7 | 16.1 | 0.00 | 0.00 | 0.30 | 55 | 1007.9 |
| 20260509215500 | 19 | 235 | 6.4 | 14.5 | 0.00 | 0.00 | 0.30 | 57 | 1007.9 |
| 20260509215001 | 19 | 145 | 6.4 | 16.1 | 0.00 | 0.00 | 0.30 | 56 | 1007.9 |
| 20260509214510 | 19 | 195 | 6.4 | 16.1 | 0.00 | 0.00 | 0.30 | 54 | 1007.9 |
| 20260509214001 | 19 | 185 | 3.2 | 17.7 | 0.00 | 0.00 | 0.30 | 54 | 1008.2 |
| 20260509213506 | 19 | 261 | 11.3 | 19.3 | 0.00 | 0.00 | 0.30 | 54 | 1008.2 |
| 20260509213006 | 18 | 204 | 9.7 | 17.7 | 0.00 | 0.00 | 0.30 | 56 | 1008.0 |
| 20260509212501 | 18 | 224 | 8.0 | 22.5 | 0.00 | 0.00 | 0.30 | 56 | 1007.9 |
| 20260509212000 | 18 | 211 | 3.2 | 16.1 | 0.00 | 0.00 | 0.30 | 58 | 1007.9 |
| 20260509211501 | 19 | 218 | 6.4 | 8.0 | 0.00 | 0.00 | 0.30 | 61 | 1008.1 |
| 20260509211000 | 18 | 237 | 14.5 | 22.5 | 0.00 | 0.00 | 0.30 | 59 | 1008.2 |
| 20260509210501 | 18 | 236 | 6.4 | 9.7 | 0.00 | 0.00 | 0.30 | 57 | 1008.4 |
| 20260509210000 | 18 | 242 | 8.0 | 20.9 | 0.00 | 0.00 | 0.30 | 58 | 1008.4 |
| 20260509205501 | 18 | 266 | 9.7 | 19.3 | 0.00 | 0.00 | 0.30 | 57 | 1008.4 |
| 20260509205000 | 19 | 172 | 4.8 | 20.9 | 0.00 | 0.00 | 0.30 | 56 | 1008.4 |
| 20260509204506 | 18 | 207 | 6.4 | 20.9 | 0.00 | 0.00 | 0.30 | 57 | 1008.4 |
| 20260509204001 | 18 | 212 | 8.0 | 12.9 | 0.00 | 0.00 | 0.30 | 58 | 1008.5 |
| 20260509203500 | 18 | 229 | 12.9 | 14.5 | 0.00 | 0.00 | 0.30 | 61 | 1008.4 |
| 20260509203000 | 18 | 253 | 8.0 | 19.3 | 0.00 | 0.00 | 0.30 | 59 | 1008.5 |
| 20260509202501 | 18 | 176 | 9.7 | 30.6 | 0.00 | 0.00 | 0.30 | 59 | 1008.6 |
| 20260509202000 | 17 | 297 | 14.5 | 24.1 | 0.00 | 0.00 | 0.30 | 60 | 1008.7 |
| 20260509201511 | 18 | 251 | 17.7 | 22.5 | 0.00 | 0.00 | 0.30 | 59 | 1008.8 |
| 20260509201001 | 17 | 237 | 9.7 | 17.7 | 0.00 | 0.00 | 0.30 | 60 | 1008.9 |
| 20260509200510 | 18 | 273 | 14.5 | 19.3 | 0.00 | 0.00 | 0.30 | 59 | 1008.9 |
| 20260509200001 | 17 | 224 | 16.1 | 27.4 | 0.00 | 0.00 | 0.30 | 60 | 1009.0 |
| 20260509195501 | 17 | 254 | 11.3 | 16.1 | 0.00 | 0.00 | 0.30 | 62 | 1009.0 |
| 20260509195001 | 17 | 222 | 20.9 | 22.5 | 0.00 | 0.00 | 0.30 | 61 | 1009.1 |
| 20260509194501 | 18 | 166 | 3.2 | 9.7 | 0.00 | 0.00 | 0.30 | 63 | 1009.1 |
| 20260509194001 | 17 | 272 | 8.0 | 20.9 | 0.00 | 0.00 | 0.30 | 66 | 1009.1 |
| 20260509193500 | 17 | 139 | 9.7 | 16.1 | 0.00 | 0.00 | 0.30 | 67 | 1009.0 |
| 20260509193001 | 17 | 227 | 8.0 | 20.9 | 0.00 | 0.00 | 0.30 | 67 | 1009.2 |
| 20260509192500 | 16 | 235 | 9.7 | 24.1 | 0.00 | 0.00 | 0.30 | 67 | 1009.3 |
| 20260509192001 | 16 | 218 | 14.5 | 30.6 | 0.00 | 0.00 | 0.30 | 65 | 1009.2 |
| 20260509191505 | 17 | 223 | 6.4 | 12.9 | 0.00 | 0.00 | 0.30 | 66 | 1009.3 |
| 20260509191001 | 17 | 206 | 4.8 | 24.1 | 0.00 | 0.00 | 0.30 | 66 | 1009.4 |
| 20260509190501 | 17 | 194 | 6.4 | 20.9 | 0.00 | 0.00 | 0.30 | 67 | 1009.4 |
| 20260509190001 | 17 | 216 | 6.4 | 12.9 | 0.00 | 0.00 | 0.30 | 71 | 1009.5 |
| 20260509185501 | 17 | 204 | 3.2 | 17.7 | 0.00 | 0.00 | 0.30 | 70 | 1009.7 |
| 20260509185000 | 16 | 195 | 6.4 | 20.9 | 0.00 | 0.00 | 0.30 | 67 | 1009.8 |
| 20260509184501 | 17 | 192 | 12.9 | 19.3 | 0.00 | 0.00 | 0.30 | 69 | 1009.8 |
| 20260509184006 | 16 | 213 | 4.8 | 12.9 | 0.00 | 0.00 | 0.30 | 71 | 1009.7 |
| 20260509183501 | 16 | 214 | 11.3 | 22.5 | 0.00 | 0.00 | 0.30 | 68 | 1009.5 |
| 20260509183001 | 16 | 217 | 12.9 | 17.7 | 0.00 | 0.00 | 0.30 | 72 | 1009.8 |
| 20260509182505 | 16 | 204 | 11.3 | 20.9 | 0.00 | 0.00 | 0.30 | 68 | 1009.8 |
| 20260509182001 | 16 | 256 | 6.4 | 20.9 | 0.00 | 0.00 | 0.30 | 69 | 1009.7 |
| 20260509181500 | 17 | 183 | 3.2 | 19.3 | 0.00 | 0.00 | 0.30 | 71 | 1009.8 |
| 20260509181001 | 16 | 238 | 12.9 | 24.1 | 0.00 | 0.00 | 0.30 | 69 | 1009.8 |
| 20260509180500 | 16 | 246 | 9.7 | 24.1 | 0.00 | 0.00 | 0.30 | 72 | 1009.8 |
| 20260509180001 | 15 | 233 | 9.7 | 17.7 | 0.00 | 0.00 | 0.30 | 74 | 1009.9 |
| 20260509175501 | 15 | 188 | 6.4 | 17.7 | 0.00 | 0.00 | 0.30 | 73 | 1009.8 |
| 20260509175001 | 15 | 253 | 4.8 | 6.4 | 0.00 | 0.00 | 0.30 | 77 | 1009.7 |
| 20260509174500 | 15 | 179 | 4.8 | 9.7 | 0.00 | 0.00 | 0.30 | 77 | 1009.7 |
| 20260509174001 | 15 | 210 | 4.8 | 14.5 | 0.00 | 0.00 | 0.30 | 77 | 1009.7 |
| 20260509173506 | 15 | 275 | 4.8 | 12.9 | 0.00 | 0.00 | 0.30 | 77 | 1009.8 |
| 20260509173006 | 15 | 226 | 8.0 | 8.0 | 0.00 | 0.00 | 0.30 | 77 | 1009.6 |
| 20260509172500 | 15 | 220 | 4.8 | 16.1 | 0.00 | 0.00 | 0.30 | 77 | 1009.8 |
| 20260509172006 | 15 | 233 | 8.0 | 14.5 | 0.00 | 0.00 | 0.30 | 77 | 1009.8 |
| 20260509171506 | 15 | 237 | 11.3 | 20.9 | 0.00 | 0.00 | 0.30 | 79 | 1009.8 |
| 20260509171010 | 14 | 252 | 8.0 | 9.7 | 0.00 | 0.00 | 0.30 | 80 | 1009.8 |
| 20260509170506 | 14 | 275 | 8.0 | 9.7 | 0.00 | 0.00 | 0.30 | 80 | 1009.8 |
| 20260509170001 | 14 | 244 | 4.8 | 9.7 | 0.00 | 0.00 | 0.30 | 80 | 1009.8 |
| 20260509165500 | 13 | 205 | 8.0 | 16.1 | 0.00 | 0.00 | 0.30 | 82 | 1009.5 |
| 20260509165001 | 13 | 310 | 6.4 | 16.1 | 0.00 | 0.00 | 0.30 | 82 | 1009.6 |
| 20260509164501 | 13 | 202 | 4.8 | 9.7 | 0.00 | 0.00 | 0.30 | 84 | 1009.7 |
| 20260509164006 | 13 | 224 | 4.8 | 17.7 | 0.00 | 0.00 | 0.30 | 84 | 1009.8 |
| 20260509163501 | 13 | 271 | 8.0 | 9.7 | 0.00 | 0.00 | 0.30 | 85 | 1009.7 |
| 20260509163000 | 13 | 156 | 1.6 | 11.3 | 0.00 | 0.00 | 0.30 | 86 | 1009.8 |
| 20260509162501 | 13 | 173 | 4.8 | 20.9 | 0.00 | 0.00 | 0.30 | 86 | 1009.7 |
| 20260509162001 | 13 | 178 | 3.2 | 11.3 | 0.00 | 0.00 | 0.30 | 86 | 1009.7 |
| 20260509161501 | 13 | 245 | 4.8 | 9.7 | 0.00 | 0.00 | 0.30 | 90 | 1009.6 |
| 20260509161001 | 13 | 189 | 3.2 | 6.4 | 0.00 | 0.00 | 0.30 | 91 | 1009.7 |
| 20260509160501 | 12 | 243 | 3.2 | 11.3 | 0.00 | 0.00 | 0.30 | 93 | 1009.8 |
| 20260509160011 | 12 | 247 | 3.2 | 6.4 | 0.00 | 0.00 | 0.30 | 94 | 1009.6 |
| 20260509155500 | 11 | 217 | 3.2 | 6.4 | 0.00 | 0.00 | 0.30 | 94 | 1009.7 |
| 20260509155001 | 11 | 249 | 4.8 | 9.7 | 0.00 | 0.00 | 0.30 | 94 | 1009.7 |
| 20260509154515 | 11 | 136 | 3.2 | 8.0 | 0.00 | 0.00 | 0.30 | 95 | 1009.7 |
| 20260509154000 | 11 | 206 | 1.6 | 3.2 | 0.00 | 0.00 | 0.30 | 95 | 1009.7 |
| 20260509153501 | 11 | 192 | 3.2 | 17.7 | 0.00 | 0.00 | 0.30 | 95 | 1009.7 |
| 20260509153000 | 11 | 207 | 9.7 | 17.7 | 0.00 | 0.00 | 0.30 | 95 | 1009.6 |
| 20260509152500 | 11 | 247 | 9.7 | 17.7 | 0.00 | 0.00 | 0.28 | 96 | 1009.5 |
| 20260509152001 | 11 | 196 | 1.6 | 9.7 | 0.00 | 0.00 | 0.28 | 96 | 1009.6 |
| 20260509151501 | 11 | 216 | 3.2 | 6.4 | 0.00 | 0.00 | 0.28 | 96 | 1009.7 |
| 20260509151001 | 11 | 214 | 3.2 | 12.9 | 0.00 | 0.00 | 0.28 | 96 | 1009.7 |
| 20260509150501 | 11 | 231 | 6.4 | 9.7 | 0.00 | 0.00 | 0.28 | 96 | 1009.8 |
| 20260509150001 | 11 | 221 | 4.8 | 8.0 | 0.00 | 0.00 | 0.28 | 96 | 1009.9 |
| 20260509145500 | 11 | 166 | 4.8 | 6.4 | 0.00 | 0.00 | 0.25 | 96 | 1009.8 |
| 20260509145001 | 11 | 214 | 3.2 | 9.7 | 0.00 | 0.00 | 0.25 | 96 | 1009.8 |
| 20260509144500 | 11 | 228 | 12.9 | 12.9 | 0.00 | 0.00 | 0.23 | 96 | 1009.6 |
| 20260509144001 | 11 | 197 | 1.6 | 9.7 | 0.00 | 0.00 | 0.20 | 96 | 1009.8 |
| 20260509143500 | 11 | 139 | 1.6 | 9.7 | 0.00 | 0.00 | 0.20 | 96 | 1009.6 |
| 20260509143000 | 11 | 223 | 1.6 | 11.3 | 0.00 | 0.00 | 0.20 | 96 | 1009.9 |
| 20260509142511 | 11 | 186 | 4.8 | 8.0 | 0.00 | 0.00 | 0.18 | 96 | 1009.7 |
| 20260509142001 | 11 | 215 | 6.4 | 19.3 | 0.00 | 0.00 | 0.18 | 96 | 1009.7 |
| 20260509141500 | 10 | 214 | 3.2 | 17.7 | 0.00 | 0.00 | 0.18 | 96 | 1009.8 |
| 20260509141000 | 11 | 193 | 8.0 | 9.7 | 0.00 | 0.00 | 0.18 | 96 | 1009.7 |
| 20260509140506 | 11 | 201 | 3.2 | 4.8 | 0.00 | 0.00 | 0.18 | 97 | 1009.9 |
| 20260509140000 | 10 | 219 | 11.3 | 14.5 | 0.00 | 0.00 | 0.18 | 97 | 1009.8 |
| 20260509135500 | 10 | 187 | 4.8 | 16.1 | 0.00 | 0.00 | 0.18 | 97 | 1009.8 |
| 20260509135006 | 10 | 216 | 1.6 | 3.2 | 0.00 | 0.00 | 0.18 | 97 | 1010.0 |
| 20260509134506 | 10 | 213 | 4.8 | 16.1 | 0.00 | 0.00 | 0.18 | 97 | 1010.0 |
| 20260509134001 | 10 | 169 | 1.6 | 11.3 | 0.00 | 0.00 | 0.18 | 97 | 1010.0 |
| 20260509133501 | 10 | 204 | 4.8 | 6.4 | 0.00 | 0.00 | 0.18 | 97 | 1009.9 |
| 20260509133006 | 10 | 222 | 11.3 | 11.3 | 0.00 | 0.00 | 0.18 | 97 | 1010.2 |
| 20260509132500 | 10 | 166 | 4.8 | 6.4 | 0.00 | 0.00 | 0.18 | 97 | 1010.0 |
| 20260509132001 | 10 | 174 | 1.6 | 9.7 | 0.00 | 0.00 | 0.15 | 97 | 1010.1 |
| 20260509131500 | 10 | 209 | 4.8 | 14.5 | 0.00 | 0.00 | 0.15 | 97 | 1010.0 |
| 20260509131001 | 10 | 221 | 8.0 | 11.3 | 0.00 | 0.00 | 0.15 | 96 | 1010.0 |
| 20260509130505 | 10 | 169 | 1.6 | 11.3 | 0.00 | 0.00 | 0.13 | 96 | 1010.0 |
| 20260509130001 | 10 | 206 | 4.8 | 16.1 | 0.00 | 0.00 | 0.13 | 96 | 1009.9 |
| 20260509125500 | 10 | 214 | 3.2 | 4.8 | 0.00 | 0.00 | 0.13 | 96 | 1010.1 |
| 20260509125001 | 10 | 195 | 6.4 | 12.9 | 0.00 | 0.00 | 0.10 | 96 | 1010.0 |
| 20260509124500 | 10 | 214 | 4.8 | 9.7 | 0.00 | 0.00 | 0.08 | 96 | 1009.9 |
| 20260509124001 | 10 | 182 | 1.6 | 6.4 | 0.00 | 0.00 | 0.08 | 96 | 1010.0 |
| 20260509123500 | 10 | 138 | 1.6 | 6.4 | 0.00 | 0.00 | 0.05 | 96 | 1010.2 |
| 20260509123000 | 10 | 126 | 1.6 | 9.7 | 0.00 | 0.00 | 0.05 | 96 | 1010.0 |
| 20260509122501 | 10 | 245 | 3.2 | 9.7 | 0.00 | 0.00 | 0.05 | 96 | 1009.8 |
| 20260509122000 | 10 | 190 | 3.2 | 11.3 | 0.00 | 0.00 | 0.05 | 96 | 1010.1 |
| 20260509121501 | 10 | 209 | 3.2 | 8.0 | 0.00 | 0.00 | 0.05 | 96 | 1010.1 |
| 20260509121005 | 10 | 150 | 0.0 | 3.2 | 0.00 | 0.00 | 0.05 | 96 | 1010.1 |
| 20260509120501 | 10 | 179 | 1.6 | 3.2 | 0.00 | 0.00 | 0.05 | 96 | 1010.0 |
| 20260509120000 | 10 | 152 | 3.2 | 8.0 | 0.00 | 0.00 | 0.05 | 96 | 1010.1 |
| 20260509115500 | 10 | 198 | 0.0 | 3.2 | 0.00 | 0.00 | 0.05 | 96 | 1009.9 |
| 20260509115006 | 10 | 154 | 3.2 | 6.4 | 0.00 | 0.00 | 0.05 | 96 | 1010.2 |
| 20260509114505 | 10 | 166 | 1.6 | 6.4 | 0.00 | 0.00 | 0.05 | 96 | 1010.0 |
| 20260509114001 | 10 | 210 | 3.2 | 3.2 | 0.00 | 0.00 | 0.05 | 96 | 1010.2 |
| 20260509113500 | 10 | 170 | 1.6 | 4.8 | 0.00 | 0.00 | 0.05 | 96 | 1010.2 |
| 20260509113005 | 10 | 173 | 3.2 | 8.0 | 0.00 | 0.00 | 0.05 | 96 | 1010.1 |
| 20260509112501 | 10 | 183 | 3.2 | 3.2 | 0.00 | 0.00 | 0.05 | 96 | 1009.9 |
| 20260509112005 | 10 | 224 | 0.0 | 3.2 | 0.00 | 0.00 | 0.03 | 97 | 1009.9 |
| 20260509111501 | 9 | 260 | 1.6 | 3.2 | 0.00 | 0.00 | 0.03 | 97 | 1010.0 |
| 20260509111010 | 9 | 141 | 1.6 | 4.8 | 0.00 | 0.00 | 0.03 | 97 | 1010.0 |
| 20260509110500 | 9 | 192 | 1.6 | 1.6 | 0.00 | 0.00 | 0.03 | 97 | 1009.7 |
| 20260509110001 | 9 | 147 | 3.2 | 4.8 | 0.00 | 0.00 | 0.03 | 97 | 1009.8 |
| 20260509105506 | 9 | 127 | 3.2 | 3.2 | 0.00 | 0.00 | 0.03 | 97 | 1009.7 |
| 20260509105001 | 9 | 122 | 3.2 | 3.2 | 0.00 | 0.00 | 0.03 | 97 | 1009.8 |
| 20260509104506 | 8 | 126 | 0.0 | 3.2 | 0.00 | 0.00 | 0.03 | 97 | 1009.8 |
| 20260509104005 | 8 | 103 | 3.2 | 3.2 | 0.00 | 0.00 | 0.03 | 97 | 1009.8 |
| 20260509103501 | 8 | 127 | 1.6 | 3.2 | 0.00 | 0.00 | 0.03 | 97 | 1009.8 |
| 20260509103000 | 8 | 144 | 0.0 | 3.2 | 0.00 | 0.00 | 0.03 | 97 | 1009.7 |
| 20260509102501 | 8 | 106 | 1.6 | 3.2 | 0.00 | 0.00 | 0.03 | 97 | 1009.7 |
| 20260509102000 | 8 | 125 | 0.0 | 3.2 | 0.00 | 0.00 | 0.03 | 97 | 1009.7 |
| 20260509101501 | 8 | 102 | 3.2 | 3.2 | 0.00 | 0.00 | 0.03 | 97 | 1009.8 |
| 20260509101000 | 8 | 115 | 1.6 | 3.2 | 0.00 | 0.00 | 0.03 | 97 | 1009.8 |
| 20260509100501 | 8 | 130 | 3.2 | 4.8 | 0.00 | 0.00 | 0.03 | 97 | 1009.8 |
| 20260509100000 | 8 | 145 | 1.6 | 3.2 | 0.00 | 0.00 | 0.03 | 97 | 1009.9 |
| 20260509095501 | 8 | 144 | 3.2 | 3.2 | 0.00 | 0.00 | 0.03 | 97 | 1010.0 |
| 20260509095005 | 8 | 112 | 0.0 | 4.8 | 0.00 | 0.00 | 0.03 | 97 | 1010.0 |
| 20260509094501 | 8 | 224 | 3.2 | 3.2 | 0.00 | 0.00 | 0.03 | 97 | 1010.1 |
| 20260509094000 | 8 | 138 | 3.2 | 3.2 | 0.00 | 0.00 | 0.03 | 97 | 1010.0 |
| 20260509093501 | 8 | 108 | 3.2 | 3.2 | 0.00 | 0.00 | 0.03 | 97 | 1010.0 |
| 20260509093001 | 8 | 73 | 1.6 | 6.4 | 0.00 | 0.00 | 0.03 | 97 | 1010.1 |
| 20260509092500 | 8 | 119 | 1.6 | 3.2 | 0.00 | 0.00 | 0.03 | 97 | 1010.1 |
| 20260509092001 | 8 | 89 | 0.0 | 3.2 | 0.00 | 0.00 | 0.03 | 97 | 1010.1 |
| 20260509091500 | 8 | 83 | 0.0 | 3.2 | 0.00 | 0.00 | 0.03 | 97 | 1010.4 |
| 20260509091006 | 8 | 17 | 0.0 | 3.2 | 0.00 | 0.00 | 0.03 | 97 | 1010.4 |
| 20260509090500 | 8 | 134 | 0.0 | 3.2 | 0.00 | 0.00 | 0.03 | 97 | 1010.6 |
| 20260509090001 | 8 | 65 | 0.0 | 3.2 | 0.00 | 0.00 | 0.03 | 97 | 1010.3 |
| 20260509085501 | 8 | 63 | 0.0 | 3.2 | 0.00 | 0.00 | 0.03 | 97 | 1010.6 |
| 20260509085000 | 8 | 60 | 0.0 | 3.2 | 0.00 | 0.00 | 0.03 | 97 | 1010.6 |
| 20260509084501 | 8 | 98 | 0.0 | 3.2 | 0.00 | 0.00 | 0.03 | 97 | 1010.5 |
| 20260509084000 | 8 | 72 | 0.0 | 1.6 | 0.00 | 0.00 | 0.03 | 97 | 1010.6 |
| 20260509083501 | 8 | 135 | 0.0 | 3.2 | 0.00 | 0.00 | 0.03 | 97 | 1010.4 |
| 20260509083000 | 8 | 66 | 0.0 | 1.6 | 0.00 | 0.00 | 0.03 | 96 | 1010.6 |
| 20260509082500 | 8 | 9 | 1.6 | 3.2 | 0.00 | 0.00 | 0.03 | 96 | 1010.5 |
| 20260509082001 | 8 | 66 | 1.6 | 3.2 | 0.00 | 0.00 | 0.03 | 96 | 1010.4 |
| 20260509081500 | 8 | 349 | 1.6 | 3.2 | 0.00 | 0.00 | 0.03 | 96 | 1010.6 |
| 20260509081001 | 8 | 72 | 0.0 | 1.6 | 0.00 | 0.00 | 0.03 | 96 | 1010.5 |
| 20260509080501 | 8 | 211 | 0.0 | 1.6 | 0.00 | 0.00 | 0.03 | 96 | 1010.7 |
| 20260509080006 | 8 | 125 | 0.0 | 0.0 | 0.00 | 0.00 | 0.03 | 96 | 1010.5 |
| 20260509075500 | 8 | 116 | 0.0 | 3.2 | 0.00 | 0.00 | 0.03 | 96 | 1010.5 |
| 20260509075001 | 8 | 325 | 0.0 | 3.2 | 0.00 | 0.00 | 0.00 | 96 | 1010.5 |
| 20260509074506 | 8 | 52 | 3.2 | 4.8 | 0.00 | 0.00 | 0.00 | 96 | 1010.5 |
| 20260509074001 | 8 | 98 | 3.2 | 3.2 | 0.00 | 0.00 | 0.00 | 96 | 1010.6 |
| 20260509073500 | 8 | 117 | 3.2 | 3.2 | 0.00 | 0.00 | 0.00 | 96 | 1010.5 |
| 20260509073006 | 8 | 112 | 1.6 | 4.8 | 0.00 | 0.00 | 0.00 | 96 | 1010.5 |
| 20260509072501 | 8 | 105 | 3.2 | 6.4 | 0.00 | 0.00 | 0.00 | 96 | 1010.4 |
| 20260509072000 | 8 | 116 | 4.8 | 4.8 | 0.00 | 0.00 | 0.00 | 96 | 1010.5 |
| 20260509071501 | 8 | 141 | 4.8 | 6.4 | 0.00 | 0.00 | 0.00 | 96 | 1010.4 |
| 20260509071000 | 8 | 114 | 4.8 | 6.4 | 0.00 | 0.00 | 0.00 | 96 | 1010.5 |
| 20260509070506 | 8 | 132 | 3.2 | 6.4 | 0.00 | 0.00 | 0.00 | 96 | 1010.6 |
| 20260509070000 | 8 | 136 | 3.2 | 6.4 | 0.00 | 0.00 | 0.00 | 96 | 1010.6 |
| 20260509065506 | 8 | 147 | 3.2 | 6.4 | 0.00 | 0.00 | 0.00 | 96 | 1010.6 |
| 20260509065000 | 8 | 110 | 1.6 | 4.8 | 0.00 | 0.00 | 0.00 | 96 | 1010.6 |
| 20260509064501 | 8 | 131 | 3.2 | 4.8 | 0.00 | 0.00 | 0.00 | 96 | 1010.5 |
| 20260509064006 | 8 | 180 | 0.0 | 3.2 | 0.00 | 0.00 | 0.00 | 96 | 1010.6 |
| 20260509063505 | 8 | 349 | 3.2 | 4.8 | 0.00 | 0.00 | 0.00 | 96 | 1010.6 |
| 20260509063006 | 8 | 245 | 0.0 | 3.2 | 0.00 | 0.00 | 0.00 | 96 | 1010.4 |
| 20260509062500 | 8 | 103 | 1.6 | 3.2 | 0.00 | 0.00 | 0.00 | 96 | 1010.9 |
| 20260509062001 | 8 | 127 | 0.0 | 3.2 | 0.00 | 0.00 | 0.00 | 96 | 1011.0 |
| 20260509061501 | 8 | 322 | 0.0 | 3.2 | 0.00 | 0.00 | 0.00 | 96 | 1010.9 |